• In Moldova, Republic
  • List of Countries
  • For 7 days
  • Water Temperature
  • Satellite Maps
  • Weather Map
  • Weather Widgets
  • user-avatar
    Login

    Hourly Weather Linz

    Today, 29 May, Monday

    Time Temperature Precipitation Wind Pressure Humidity
    00:00 +14°C° 0 mm 1 mps 736 mmHg 89%
    01:00 +14°C° 0 mm 1 mps 735 mmHg 89%
    02:00 +13°C° 0 mm 1 mps 735 mmHg 89%
    03:00 +13°C° 0 mm 1 mps 735 mmHg 89%
    04:00 +13°C° 0 mm 1 mps 735 mmHg 89%
    05:00 +15°C° 0 mm 1 mps 735 mmHg 83%
    06:00 +19°C° 0 mm 1 mps 735 mmHg 77%
    07:00 +22°C° 0 mm 1 mps 735 mmHg 71%
    08:00 +23°C° 0 mm 1 mps 735 mmHg 65%
    09:00 +25°C° 0 mm 1 mps 735 mmHg 59%
    10:00 +27°C° 0 mm 1 mps 734 mmHg 53%
    11:00 +28°C° 0 mm 1 mps 734 mmHg 50%
    12:00 +29°C° 0 mm 1 mps 734 mmHg 46%
    13:00 +29°C° 0 mm 1 mps 734 mmHg 43%
    14:00 +29°C° 0 mm 1 mps 733 mmHg 44%
    15:00 +29°C° 0 mm 1 mps 733 mmHg 45%
    16:00 +29°C° 0 mm 1 mps 733 mmHg 46%
    17:00 +27°C° 0 mm 1 mps 732 mmHg 56%
    18:00 +25°C° 0 mm 1 mps 732 mmHg 66%
    19:00 +23°C° 0 mm 1 mps 732 mmHg 75%
    20:00 +19°C° 0 mm 0 mps 732 mmHg 79%
    21:00 +17°C° 0 mm 0 mps 732 mmHg 82%
    22:00 +14°C° 0 mm 0 mps 732 mmHg 86%
    23:00 +16°C° 0 mm 1 mps 732 mmHg 85%

    Tomorrow, 30 May, Tuesday

    Time Temperature Precipitation Wind Pressure Humidity
    00:00 +16°C° 0 mm 1 mps 732 mmHg 84%
    01:00 +16°C° 0 mm 1 mps 732 mmHg 82%
    02:00 +16°C° 0 mm 1 mps 732 mmHg 82%
    03:00 +16°C° 0 mm 1 mps 732 mmHg 82%
    04:00 +16°C° 0 mm 1 mps 732 mmHg 82%
    05:00 +19°C° 0 mm 1 mps 732 mmHg 77%
    06:00 +21°C° 0 mm 1 mps 733 mmHg 73%
    07:00 +24°C° 0 mm 1 mps 733 mmHg 68%
    08:00 +25°C° 0 mm 1 mps 733 mmHg 65%
    09:00 +26°C° 0 mm 1 mps 733 mmHg 62%
    10:00 +27°C° 0 mm 2 mps 733 mmHg 59%
    11:00 +28°C° 0.4 mm 2 mps 733 mmHg 59%
    12:00 +28°C° 0.4 mm 2 mps 733 mmHg 60%
    13:00 +29°C° 0.4 mm 2 mps 733 mmHg 60%
    14:00 +28°C° 0.9 mm 2 mps 733 mmHg 64%
    15:00 +28°C° 0.9 mm 2 mps 733 mmHg 67%
    16:00 +27°C° 0.9 mm 1 mps 733 mmHg 71%
    17:00 +26°C° 1 mm 1 mps 733 mmHg 77%
    18:00 +25°C° 1 mm 1 mps 733 mmHg 82%
    19:00 +23°C° 1 mm 1 mps 733 mmHg 87%
    20:00 +23°C° 1 mm 1 mps 733 mmHg 89%
    21:00 +21°C° 1 mm 2 mps 734 mmHg 91%
    22:00 +20°C° 1 mm 2 mps 734 mmHg 92%
    23:00 +19°C° 0.6 mm 2 mps 734 mmHg 93%

    Day after tomorrow, 31 May, Wednesday

    Time Temperature Precipitation Wind Pressure Humidity
    00:00 +19°C° 0.6 mm 2 mps 734 mmHg 94%
    01:00 +18°C° 0.6 mm 2 mps 734 mmHg 95%
    02:00 +17°C° 0.1 mm 2 mps 734 mmHg 96%
    03:00 +17°C° 0.1 mm 2 mps 734 mmHg 96%
    04:00 +16°C° 0.1 mm 1 mps 734 mmHg 97%
    05:00 +19°C° 0 mm 1 mps 735 mmHg 95%
    06:00 +20°C° 0 mm 1 mps 735 mmHg 93%
    07:00 +20°C° 0 mm 2 mps 735 mmHg 92%
    08:00 +21°C° 0.1 mm 2 mps 735 mmHg 86%
    09:00 +23°C° 0.1 mm 2 mps 735 mmHg 80%
    10:00 +24°C° 0.1 mm 3 mps 735 mmHg 74%
    11:00 +25°C° 0.3 mm 3 mps 735 mmHg 73%
    12:00 +25°C° 0.3 mm 3 mps 735 mmHg 71%
    13:00 +26°C° 0.3 mm 3 mps 735 mmHg 69%
    14:00 +26°C° 0.4 mm 3 mps 735 mmHg 70%
    15:00 +26°C° 0.4 mm 2 mps 735 mmHg 71%
    16:00 +26°C° 0.4 mm 2 mps 735 mmHg 72%
    17:00 +25°C° 0.3 mm 2 mps 735 mmHg 77%
    18:00 +24°C° 0.3 mm 1 mps 735 mmHg 82%
    19:00 +22°C° 0.3 mm 1 mps 735 mmHg 87%
    20:00 +21°C° 0.2 mm 1 mps 735 mmHg 89%
    21:00 +19°C° 0.2 mm 1 mps 735 mmHg 91%
    22:00 +16°C° 0.2 mm 1 mps 735 mmHg 93%
    23:00 +15°C° 0 mm 1 mps 735 mmHg 94%

    1 June, Thursday

    Time Temperature Precipitation Wind Pressure Humidity
    00:00 +15°C° 0 mm 1 mps 735 mmHg 94%
    01:00 +14°C° 0 mm 1 mps 735 mmHg 95%
    02:00 +14°C° 0 mm 1 mps 735 mmHg 95%
    03:00 +14°C° 0 mm 1 mps 735 mmHg 95%
    04:00 +13°C° 0 mm 1 mps 735 mmHg 96%
    05:00 +15°C° 0 mm 1 mps 735 mmHg 93%
    06:00 +16°C° 0 mm 1 mps 735 mmHg 90%
    07:00 +19°C° 0 mm 1 mps 736 mmHg 88%
    08:00 +19°C° 0.1 mm 1 mps 736 mmHg 86%
    09:00 +20°C° 0.1 mm 1 mps 736 mmHg 84%
    10:00 +21°C° 0.1 mm 1 mps 736 mmHg 82%
    11:00 +21°C° 0.1 mm 1 mps 736 mmHg 78%
    12:00 +22°C° 0.1 mm 1 mps 736 mmHg 75%
    13:00 +21°C° 0.1 mm 0 mps 736 mmHg 72%
    14:00 +23°C° 0.1 mm 1 mps 736 mmHg 71%
    15:00 +24°C° 0.1 mm 1 mps 735 mmHg 71%
    16:00 +24°C° 0.1 mm 1 mps 735 mmHg 70%
    17:00 +23°C° 0.1 mm 1 mps 735 mmHg 76%
    18:00 +22°C° 0.1 mm 1 mps 735 mmHg 81%
    19:00 +21°C° 0.1 mm 1 mps 735 mmHg 86%
    20:00 +20°C° 0 mm 1 mps 735 mmHg 88%
    21:00 +18°C° 0 mm 1 mps 736 mmHg 90%
    22:00 +16°C° 0 mm 1 mps 736 mmHg 92%
    23:00 +15°C° 0.1 mm 1 mps 736 mmHg 93%

    2 June, Friday

    Time Temperature Precipitation Wind Pressure Humidity
    00:00 +14°C° 0.1 mm 1 mps 735 mmHg 93%
    01:00 +13°C° 0.1 mm 1 mps 735 mmHg 94%
    02:00 +13°C° 0 mm 1 mps 735 mmHg 94%
    03:00 +11°C° 0 mm 0 mps 735 mmHg 95%
    04:00 +11°C° 0 mm 0 mps 735 mmHg 95%
    05:00 +13°C° 0 mm 0 mps 735 mmHg 90%
    06:00 +18°C° 0 mm 1 mps 736 mmHg 85%
    07:00 +20°C° 0 mm 1 mps 736 mmHg 81%
    08:00 +21°C° 0 mm 1 mps 736 mmHg 76%
    09:00 +23°C° 0 mm 1 mps 736 mmHg 72%
    10:00 +24°C° 0 mm 1 mps 736 mmHg 68%
    11:00 +25°C° 0.2 mm 1 mps 736 mmHg 66%
    12:00 +25°C° 0.2 mm 1 mps 736 mmHg 63%
    13:00 +26°C° 0.2 mm 1 mps 735 mmHg 61%
    14:00 +26°C° 0.1 mm 1 mps 735 mmHg 60%
    15:00 +26°C° 0.1 mm 1 mps 735 mmHg 59%
    16:00 +26°C° 0.1 mm 1 mps 735 mmHg 59%
    17:00 +25°C° 0.1 mm 1 mps 735 mmHg 66%
    18:00 +24°C° 0.1 mm 1 mps 735 mmHg 74%
    19:00 +20°C° 0.1 mm 0 mps 734 mmHg 82%
    20:00 +18°C° 0 mm 0 mps 734 mmHg 85%
    21:00 +15°C° 0 mm 0 mps 734 mmHg 88%
    22:00 +13°C° 0 mm 0 mps 734 mmHg 90%
    23:00 +14°C° 0 mm 1 mps 734 mmHg 91%

    3 June, Saturday

    Time Temperature Precipitation Wind Pressure Humidity
    00:00 +14°C° 0 mm 1 mps 734 mmHg 91%
    01:00 +14°C° 0 mm 1 mps 734 mmHg 91%
    02:00 +14°C° 0 mm 1 mps 734 mmHg 92%
    03:00 +14°C° 0 mm 1 mps 734 mmHg 92%
    04:00 +14°C° 0 mm 1 mps 734 mmHg 92%
    05:00 +16°C° 0 mm 1 mps 734 mmHg 87%
    06:00 +19°C° 0 mm 1 mps 734 mmHg 82%
    07:00 +22°C° 0 mm 1 mps 735 mmHg 77%
    08:00 +23°C° 0 mm 1 mps 735 mmHg 71%
    09:00 +25°C° 0 mm 2 mps 735 mmHg 66%
    10:00 +26°C° 0 mm 2 mps 735 mmHg 60%
    11:00 +27°C° 0 mm 2 mps 734 mmHg 58%
    12:00 +28°C° 0 mm 2 mps 734 mmHg 55%
    13:00 +29°C° 0 mm 3 mps 734 mmHg 53%
    14:00 +29°C° 0 mm 3 mps 734 mmHg 54%
    15:00 +29°C° 0 mm 3 mps 734 mmHg 56%
    16:00 +29°C° 0 mm 3 mps 733 mmHg 57%
    17:00 +27°C° 0 mm 3 mps 733 mmHg 65%
    18:00 +26°C° 0 mm 3 mps 733 mmHg 72%
    19:00 +24°C° 0 mm 2 mps 733 mmHg 80%
    20:00 +23°C° 0 mm 2 mps 733 mmHg 84%
    21:00 +20°C° 0 mm 2 mps 733 mmHg 87%
    22:00 +19°C° 0 mm 2 mps 733 mmHg 91%
    23:00 +18°C° 0 mm 2 mps 733 mmHg 91%
    Show more